locationName,lineName,date,time,countIn,countOut
��Ƃ�̍L��,�C�ݕ���,2022/7/1,0:00,5,1
��Ƃ�̍L��,�C�ݕ���,2022/7/1,1:00,1,0
��Ƃ�̍L��,�C�ݕ���,2022/7/1,2:00,1,0
��Ƃ�̍L��,�C�ݕ���,2022/7/1,3:00,1,3
��Ƃ�̍L��,�C�ݕ���,2022/7/1,4:00,0,1
��Ƃ�̍L��,�C�ݕ���,2022/7/1,5:00,5,0
��Ƃ�̍L��,�C�ݕ���,2022/7/1,6:00,2,5
��Ƃ�̍L��,�C�ݕ���,2022/7/1,7:00,16,6
��Ƃ�̍L��,�C�ݕ���,2022/7/1,8:00,19,41
��Ƃ�̍L��,�C�ݕ���,2022/7/1,9:00,39,19
��Ƃ�̍L��,�C�ݕ���,2022/7/1,10:00,49,23
��Ƃ�̍L��,�C�ݕ���,2022/7/1,11:00,83,38
��Ƃ�̍L��,�C�ݕ���,2022/7/1,12:00,64,38
��Ƃ�̍L��,�C�ݕ���,2022/7/1,13:00,55,23
��Ƃ�̍L��,�C�ݕ���,2022/7/1,14:00,53,28
��Ƃ�̍L��,�C�ݕ���,2022/7/1,15:00,64,31
��Ƃ�̍L��,�C�ݕ���,2022/7/1,16:00,61,29
��Ƃ�̍L��,�C�ݕ���,2022/7/1,17:00,64,32
��Ƃ�̍L��,�C�ݕ���,2022/7/1,18:00,34,34
��Ƃ�̍L��,�C�ݕ���,2022/7/1,19:00,28,15
��Ƃ�̍L��,�C�ݕ���,2022/7/1,20:00,19,5
��Ƃ�̍L��,�C�ݕ���,2022/7/1,21:00,20,8
��Ƃ�̍L��,�C�ݕ���,2022/7/1,22:00,23,7
��Ƃ�̍L��,�C�ݕ���,2022/7/1,23:00,8,4
��Ƃ�̍L��,�C�ݕ���,2022/7/2,0:00,4,1
��Ƃ�̍L��,�C�ݕ���,2022/7/2,1:00,3,1
��Ƃ�̍L��,�C�ݕ���,2022/7/2,2:00,1,1
��Ƃ�̍L��,�C�ݕ���,2022/7/2,3:00,1,1
��Ƃ�̍L��,�C�ݕ���,2022/7/2,4:00,2,0
��Ƃ�̍L��,�C�ݕ���,2022/7/2,5:00,1,3
��Ƃ�̍L��,�C�ݕ���,2022/7/2,6:00,5,4
��Ƃ�̍L��,�C�ݕ���,2022/7/2,7:00,6,7
��Ƃ�̍L��,�C�ݕ���,2022/7/2,8:00,24,16
��Ƃ�̍L��,�C�ݕ���,2022/7/2,9:00,51,38
��Ƃ�̍L��,�C�ݕ���,2022/7/2,10:00,61,33
��Ƃ�̍L��,�C�ݕ���,2022/7/2,11:00,81,59
��Ƃ�̍L��,�C�ݕ���,2022/7/2,12:00,108,48
��Ƃ�̍L��,�C�ݕ���,2022/7/2,13:00,92,72
��Ƃ�̍L��,�C�ݕ���,2022/7/2,14:00,63,46
��Ƃ�̍L��,�C�ݕ���,2022/7/2,15:00,59,53
��Ƃ�̍L��,�C�ݕ���,2022/7/2,16:00,48,45
��Ƃ�̍L��,�C�ݕ���,2022/7/2,17:00,97,97
��Ƃ�̍L��,�C�ݕ���,2022/7/2,18:00,50,24
��Ƃ�̍L��,�C�ݕ���,2022/7/2,19:00,32,27
��Ƃ�̍L��,�C�ݕ���,2022/7/2,20:00,21,15
��Ƃ�̍L��,�C�ݕ���,2022/7/2,21:00,18,11
��Ƃ�̍L��,�C�ݕ���,2022/7/2,22:00,13,2
��Ƃ�̍L��,�C�ݕ���,2022/7/2,23:00,9,4
��Ƃ�̍L��,�C�ݕ���,2022/7/3,0:00,5,4
��Ƃ�̍L��,�C�ݕ���,2022/7/3,1:00,1,1
��Ƃ�̍L��,�C�ݕ���,2022/7/3,2:00,1,0
��Ƃ�̍L��,�C�ݕ���,2022/7/3,3:00,1,0
��Ƃ�̍L��,�C�ݕ���,2022/7/3,4:00,0,2
��Ƃ�̍L��,�C�ݕ���,2022/7/3,5:00,4,6
��Ƃ�̍L��,�C�ݕ���,2022/7/3,6:00,5,3
��Ƃ�̍L��,�C�ݕ���,2022/7/3,7:00,6,5
��Ƃ�̍L��,�C�ݕ���,2022/7/3,8:00,18,19
��Ƃ�̍L��,�C�ݕ���,2022/7/3,9:00,27,13
��Ƃ�̍L��,�C�ݕ���,2022/7/3,10:00,40,26
��Ƃ�̍L��,�C�ݕ���,2022/7/3,11:00,79,61
��Ƃ�̍L��,�C�ݕ���,2022/7/3,12:00,107,69
��Ƃ�̍L��,�C�ݕ���,2022/7/3,13:00,100,61
��Ƃ�̍L��,�C�ݕ���,2022/7/3,14:00,65,63
��Ƃ�̍L��,�C�ݕ���,2022/7/3,15:00,61,52
��Ƃ�̍L��,�C�ݕ���,2022/7/3,16:00,47,35
��Ƃ�̍L��,�C�ݕ���,2022/7/3,17:00,54,34
��Ƃ�̍L��,�C�ݕ���,2022/7/3,18:00,24,15
��Ƃ�̍L��,�C�ݕ���,2022/7/3,19:00,20,10
��Ƃ�̍L��,�C�ݕ���,2022/7/3,20:00,7,6
��Ƃ�̍L��,�C�ݕ���,2022/7/3,21:00,6,2
��Ƃ�̍L��,�C�ݕ���,2022/7/3,22:00,4,1
��Ƃ�̍L��,�C�ݕ���,2022/7/3,23:00,2,0
��Ƃ�̍L��,�C�ݕ���,2022/7/4,0:00,2,3
��Ƃ�̍L��,�C�ݕ���,2022/7/4,1:00,0,0
��Ƃ�̍L��,�C�ݕ���,2022/7/4,2:00,2,1
��Ƃ�̍L��,�C�ݕ���,2022/7/4,3:00,1,0
��Ƃ�̍L��,�C�ݕ���,2022/7/4,4:00,3,1
��Ƃ�̍L��,�C�ݕ���,2022/7/4,5:00,5,2
��Ƃ�̍L��,�C�ݕ���,2022/7/4,6:00,4,3
��Ƃ�̍L��,�C�ݕ���,2022/7/4,7:00,4,8
��Ƃ�̍L��,�C�ݕ���,2022/7/4,8:00,13,24
��Ƃ�̍L��,�C�ݕ���,2022/7/4,9:00,32,34
��Ƃ�̍L��,�C�ݕ���,2022/7/4,10:00,35,28
��Ƃ�̍L��,�C�ݕ���,2022/7/4,11:00,61,35
��Ƃ�̍L��,�C�ݕ���,2022/7/4,12:00,38,21
��Ƃ�̍L��,�C�ݕ���,2022/7/4,13:00,58,30
��Ƃ�̍L��,�C�ݕ���,2022/7/4,14:00,37,35
��Ƃ�̍L��,�C�ݕ���,2022/7/4,15:00,52,28
��Ƃ�̍L��,�C�ݕ���,2022/7/4,16:00,52,21
��Ƃ�̍L��,�C�ݕ���,2022/7/4,17:00,44,30
��Ƃ�̍L��,�C�ݕ���,2022/7/4,18:00,34,21
��Ƃ�̍L��,�C�ݕ���,2022/7/4,19:00,23,13
��Ƃ�̍L��,�C�ݕ���,2022/7/4,20:00,11,8
��Ƃ�̍L��,�C�ݕ���,2022/7/4,21:00,10,4
��Ƃ�̍L��,�C�ݕ���,2022/7/4,22:00,8,4
��Ƃ�̍L��,�C�ݕ���,2022/7/4,23:00,3,0
��Ƃ�̍L��,�C�ݕ���,2022/7/5,0:00,3,0
��Ƃ�̍L��,�C�ݕ���,2022/7/5,1:00,1,0
��Ƃ�̍L��,�C�ݕ���,2022/7/5,2:00,2,2
��Ƃ�̍L��,�C�ݕ���,2022/7/5,3:00,2,0
��Ƃ�̍L��,�C�ݕ���,2022/7/5,4:00,2,0
��Ƃ�̍L��,�C�ݕ���,2022/7/5,5:00,4,3
��Ƃ�̍L��,�C�ݕ���,2022/7/5,6:00,10,9
��Ƃ�̍L��,�C�ݕ���,2022/7/5,7:00,12,5
��Ƃ�̍L��,�C�ݕ���,2022/7/5,8:00,18,19
��Ƃ�̍L��,�C�ݕ���,2022/7/5,9:00,36,27
��Ƃ�̍L��,�C�ݕ���,2022/7/5,10:00,51,29
��Ƃ�̍L��,�C�ݕ���,2022/7/5,11:00,56,26
��Ƃ�̍L��,�C�ݕ���,2022/7/5,12:00,66,29
��Ƃ�̍L��,�C�ݕ���,2022/7/5,13:00,51,35
��Ƃ�̍L��,�C�ݕ���,2022/7/5,14:00,46,33
��Ƃ�̍L��,�C�ݕ���,2022/7/5,15:00,50,44
��Ƃ�̍L��,�C�ݕ���,2022/7/5,16:00,56,39
��Ƃ�̍L��,�C�ݕ���,2022/7/5,17:00,61,26
��Ƃ�̍L��,�C�ݕ���,2022/7/5,18:00,43,33
��Ƃ�̍L��,�C�ݕ���,2022/7/5,19:00,30,16
��Ƃ�̍L��,�C�ݕ���,2022/7/5,20:00,21,18
��Ƃ�̍L��,�C�ݕ���,2022/7/5,21:00,21,4
��Ƃ�̍L��,�C�ݕ���,2022/7/5,22:00,7,3
��Ƃ�̍L��,�C�ݕ���,2022/7/5,23:00,3,2
��Ƃ�̍L��,�C�ݕ���,2022/7/6,0:00,1,1
��Ƃ�̍L��,�C�ݕ���,2022/7/6,1:00,0,0
��Ƃ�̍L��,�C�ݕ���,2022/7/6,2:00,0,0
��Ƃ�̍L��,�C�ݕ���,2022/7/6,3:00,0,0
��Ƃ�̍L��,�C�ݕ���,2022/7/6,4:00,2,0
��Ƃ�̍L��,�C�ݕ���,2022/7/6,5:00,3,5
��Ƃ�̍L��,�C�ݕ���,2022/7/6,6:00,11,7
��Ƃ�̍L��,�C�ݕ���,2022/7/6,7:00,15,9
��Ƃ�̍L��,�C�ݕ���,2022/7/6,8:00,22,15
��Ƃ�̍L��,�C�ݕ���,2022/7/6,9:00,29,25
��Ƃ�̍L��,�C�ݕ���,2022/7/6,10:00,44,22
��Ƃ�̍L��,�C�ݕ���,2022/7/6,11:00,64,50
��Ƃ�̍L��,�C�ݕ���,2022/7/6,12:00,62,46
��Ƃ�̍L��,�C�ݕ���,2022/7/6,13:00,65,40
��Ƃ�̍L��,�C�ݕ���,2022/7/6,14:00,52,37
��Ƃ�̍L��,�C�ݕ���,2022/7/6,15:00,74,31
��Ƃ�̍L��,�C�ݕ���,2022/7/6,16:00,76,21
��Ƃ�̍L��,�C�ݕ���,2022/7/6,17:00,79,30
��Ƃ�̍L��,�C�ݕ���,2022/7/6,18:00,52,25
��Ƃ�̍L��,�C�ݕ���,2022/7/6,19:00,23,11
��Ƃ�̍L��,�C�ݕ���,2022/7/6,20:00,19,13
��Ƃ�̍L��,�C�ݕ���,2022/7/6,21:00,9,8
��Ƃ�̍L��,�C�ݕ���,2022/7/6,22:00,12,9
��Ƃ�̍L��,�C�ݕ���,2022/7/6,23:00,3,3
��Ƃ�̍L��,�C�ݕ���,2022/7/7,0:00,2,1
��Ƃ�̍L��,�C�ݕ���,2022/7/7,1:00,1,0
��Ƃ�̍L��,�C�ݕ���,2022/7/7,2:00,0,2
��Ƃ�̍L��,�C�ݕ���,2022/7/7,3:00,1,0
��Ƃ�̍L��,�C�ݕ���,2022/7/7,4:00,3,1
��Ƃ�̍L��,�C�ݕ���,2022/7/7,5:00,4,2
��Ƃ�̍L��,�C�ݕ���,2022/7/7,6:00,1,2
��Ƃ�̍L��,�C�ݕ���,2022/7/7,7:00,14,9
��Ƃ�̍L��,�C�ݕ���,2022/7/7,8:00,20,25
��Ƃ�̍L��,�C�ݕ���,2022/7/7,9:00,45,29
��Ƃ�̍L��,�C�ݕ���,2022/7/7,10:00,53,18
��Ƃ�̍L��,�C�ݕ���,2022/7/7,11:00,62,27
��Ƃ�̍L��,�C�ݕ���,2022/7/7,12:00,57,36
��Ƃ�̍L��,�C�ݕ���,2022/7/7,13:00,44,37
��Ƃ�̍L��,�C�ݕ���,2022/7/7,14:00,50,25
��Ƃ�̍L��,�C�ݕ���,2022/7/7,15:00,67,40
��Ƃ�̍L��,�C�ݕ���,2022/7/7,16:00,49,28
��Ƃ�̍L��,�C�ݕ���,2022/7/7,17:00,51,20
��Ƃ�̍L��,�C�ݕ���,2022/7/7,18:00,42,17
��Ƃ�̍L��,�C�ݕ���,2022/7/7,19:00,18,16
��Ƃ�̍L��,�C�ݕ���,2022/7/7,20:00,15,13
��Ƃ�̍L��,�C�ݕ���,2022/7/7,21:00,29,10
��Ƃ�̍L��,�C�ݕ���,2022/7/7,22:00,5,4
��Ƃ�̍L��,�C�ݕ���,2022/7/7,23:00,4,3
��Ƃ�̍L��,�C�ݕ���,2022/7/8,0:00,1,2
��Ƃ�̍L��,�C�ݕ���,2022/7/8,1:00,1,1
��Ƃ�̍L��,�C�ݕ���,2022/7/8,2:00,2,0
��Ƃ�̍L��,�C�ݕ���,2022/7/8,3:00,0,0
��Ƃ�̍L��,�C�ݕ���,2022/7/8,4:00,1,1
��Ƃ�̍L��,�C�ݕ���,2022/7/8,5:00,4,4
��Ƃ�̍L��,�C�ݕ���,2022/7/8,6:00,5,3
��Ƃ�̍L��,�C�ݕ���,2022/7/8,7:00,6,4
��Ƃ�̍L��,�C�ݕ���,2022/7/8,8:00,26,28
��Ƃ�̍L��,�C�ݕ���,2022/7/8,9:00,51,13
��Ƃ�̍L��,�C�ݕ���,2022/7/8,10:00,68,39
��Ƃ�̍L��,�C�ݕ���,2022/7/8,11:00,77,30
��Ƃ�̍L��,�C�ݕ���,2022/7/8,12:00,57,28
��Ƃ�̍L��,�C�ݕ���,2022/7/8,13:00,56,32
��Ƃ�̍L��,�C�ݕ���,2022/7/8,14:00,93,36
��Ƃ�̍L��,�C�ݕ���,2022/7/8,15:00,60,27
��Ƃ�̍L��,�C�ݕ���,2022/7/8,16:00,56,34
��Ƃ�̍L��,�C�ݕ���,2022/7/8,17:00,62,36
��Ƃ�̍L��,�C�ݕ���,2022/7/8,18:00,43,25
��Ƃ�̍L��,�C�ݕ���,2022/7/8,19:00,19,13
��Ƃ�̍L��,�C�ݕ���,2022/7/8,20:00,18,4
��Ƃ�̍L��,�C�ݕ���,2022/7/8,21:00,29,11
��Ƃ�̍L��,�C�ݕ���,2022/7/8,22:00,19,8
��Ƃ�̍L��,�C�ݕ���,2022/7/8,23:00,3,3
��Ƃ�̍L��,�C�ݕ���,2022/7/9,0:00,2,0
��Ƃ�̍L��,�C�ݕ���,2022/7/9,1:00,2,3
��Ƃ�̍L��,�C�ݕ���,2022/7/9,2:00,2,0
��Ƃ�̍L��,�C�ݕ���,2022/7/9,3:00,2,2
��Ƃ�̍L��,�C�ݕ���,2022/7/9,4:00,2,1
��Ƃ�̍L��,�C�ݕ���,2022/7/9,5:00,1,3
��Ƃ�̍L��,�C�ݕ���,2022/7/9,6:00,4,5
��Ƃ�̍L��,�C�ݕ���,2022/7/9,7:00,3,5
��Ƃ�̍L��,�C�ݕ���,2022/7/9,8:00,17,23
��Ƃ�̍L��,�C�ݕ���,2022/7/9,9:00,33,24
��Ƃ�̍L��,�C�ݕ���,2022/7/9,10:00,57,33
��Ƃ�̍L��,�C�ݕ���,2022/7/9,11:00,70,38
��Ƃ�̍L��,�C�ݕ���,2022/7/9,12:00,130,54
��Ƃ�̍L��,�C�ݕ���,2022/7/9,13:00,104,43
��Ƃ�̍L��,�C�ݕ���,2022/7/9,14:00,94,55
��Ƃ�̍L��,�C�ݕ���,2022/7/9,15:00,103,61
��Ƃ�̍L��,�C�ݕ���,2022/7/9,16:00,53,41
��Ƃ�̍L��,�C�ݕ���,2022/7/9,17:00,69,51
��Ƃ�̍L��,�C�ݕ���,2022/7/9,18:00,40,36
��Ƃ�̍L��,�C�ݕ���,2022/7/9,19:00,45,37
��Ƃ�̍L��,�C�ݕ���,2022/7/9,20:00,30,14
��Ƃ�̍L��,�C�ݕ���,2022/7/9,21:00,25,6
��Ƃ�̍L��,�C�ݕ���,2022/7/9,22:00,19,12
��Ƃ�̍L��,�C�ݕ���,2022/7/9,23:00,12,3
��Ƃ�̍L��,�C�ݕ���,2022/7/10,0:00,4,1
��Ƃ�̍L��,�C�ݕ���,2022/7/10,1:00,4,3
��Ƃ�̍L��,�C�ݕ���,2022/7/10,2:00,1,1
��Ƃ�̍L��,�C�ݕ���,2022/7/10,3:00,0,1
��Ƃ�̍L��,�C�ݕ���,2022/7/10,4:00,1,2
��Ƃ�̍L��,�C�ݕ���,2022/7/10,5:00,7,10
��Ƃ�̍L��,�C�ݕ���,2022/7/10,6:00,8,5
��Ƃ�̍L��,�C�ݕ���,2022/7/10,7:00,15,4
��Ƃ�̍L��,�C�ݕ���,2022/7/10,8:00,7,7
��Ƃ�̍L��,�C�ݕ���,2022/7/10,9:00,17,8
��Ƃ�̍L��,�C�ݕ���,2022/7/10,10:00,46,33
��Ƃ�̍L��,�C�ݕ���,2022/7/10,11:00,67,36
��Ƃ�̍L��,�C�ݕ���,2022/7/10,12:00,95,66
��Ƃ�̍L��,�C�ݕ���,2022/7/10,13:00,102,74
��Ƃ�̍L��,�C�ݕ���,2022/7/10,14:00,120,70
��Ƃ�̍L��,�C�ݕ���,2022/7/10,15:00,86,58
��Ƃ�̍L��,�C�ݕ���,2022/7/10,16:00,55,40
��Ƃ�̍L��,�C�ݕ���,2022/7/10,17:00,51,43
��Ƃ�̍L��,�C�ݕ���,2022/7/10,18:00,20,20
��Ƃ�̍L��,�C�ݕ���,2022/7/10,19:00,18,3
��Ƃ�̍L��,�C�ݕ���,2022/7/10,20:00,12,7
��Ƃ�̍L��,�C�ݕ���,2022/7/10,21:00,9,5
��Ƃ�̍L��,�C�ݕ���,2022/7/10,22:00,2,6
��Ƃ�̍L��,�C�ݕ���,2022/7/10,23:00,3,1
��Ƃ�̍L��,�C�ݕ���,2022/7/11,0:00,2,1
��Ƃ�̍L��,�C�ݕ���,2022/7/11,1:00,2,0
��Ƃ�̍L��,�C�ݕ���,2022/7/11,2:00,1,1
��Ƃ�̍L��,�C�ݕ���,2022/7/11,3:00,2,0
��Ƃ�̍L��,�C�ݕ���,2022/7/11,4:00,2,2
��Ƃ�̍L��,�C�ݕ���,2022/7/11,5:00,3,3
��Ƃ�̍L��,�C�ݕ���,2022/7/11,6:00,10,4
��Ƃ�̍L��,�C�ݕ���,2022/7/11,7:00,10,6
��Ƃ�̍L��,�C�ݕ���,2022/7/11,8:00,25,27
��Ƃ�̍L��,�C�ݕ���,2022/7/11,9:00,28,21
��Ƃ�̍L��,�C�ݕ���,2022/7/11,10:00,41,31
��Ƃ�̍L��,�C�ݕ���,2022/7/11,11:00,62,42
��Ƃ�̍L��,�C�ݕ���,2022/7/11,12:00,61,31
��Ƃ�̍L��,�C�ݕ���,2022/7/11,13:00,55,33
��Ƃ�̍L��,�C�ݕ���,2022/7/11,14:00,71,27
��Ƃ�̍L��,�C�ݕ���,2022/7/11,15:00,74,27
��Ƃ�̍L��,�C�ݕ���,2022/7/11,16:00,60,34
��Ƃ�̍L��,�C�ݕ���,2022/7/11,17:00,66,25
��Ƃ�̍L��,�C�ݕ���,2022/7/11,18:00,25,25
��Ƃ�̍L��,�C�ݕ���,2022/7/11,19:00,26,8
��Ƃ�̍L��,�C�ݕ���,2022/7/11,20:00,20,12
��Ƃ�̍L��,�C�ݕ���,2022/7/11,21:00,19,7
��Ƃ�̍L��,�C�ݕ���,2022/7/11,22:00,6,1
��Ƃ�̍L��,�C�ݕ���,2022/7/11,23:00,2,0
��Ƃ�̍L��,�C�ݕ���,2022/7/12,0:00,1,1
��Ƃ�̍L��,�C�ݕ���,2022/7/12,1:00,1,0
��Ƃ�̍L��,�C�ݕ���,2022/7/12,2:00,0,0
��Ƃ�̍L��,�C�ݕ���,2022/7/12,3:00,1,0
��Ƃ�̍L��,�C�ݕ���,2022/7/12,4:00,1,0
��Ƃ�̍L��,�C�ݕ���,2022/7/12,5:00,4,1
��Ƃ�̍L��,�C�ݕ���,2022/7/12,6:00,4,4
��Ƃ�̍L��,�C�ݕ���,2022/7/12,7:00,18,6
��Ƃ�̍L��,�C�ݕ���,2022/7/12,8:00,22,23
��Ƃ�̍L��,�C�ݕ���,2022/7/12,9:00,31,27
��Ƃ�̍L��,�C�ݕ���,2022/7/12,10:00,48,22
��Ƃ�̍L��,�C�ݕ���,2022/7/12,11:00,50,31
��Ƃ�̍L��,�C�ݕ���,2022/7/12,12:00,54,22
��Ƃ�̍L��,�C�ݕ���,2022/7/12,13:00,43,30
��Ƃ�̍L��,�C�ݕ���,2022/7/12,14:00,54,42
��Ƃ�̍L��,�C�ݕ���,2022/7/12,15:00,69,29
��Ƃ�̍L��,�C�ݕ���,2022/7/12,16:00,53,31
��Ƃ�̍L��,�C�ݕ���,2022/7/12,17:00,54,25
��Ƃ�̍L��,�C�ݕ���,2022/7/12,18:00,30,22
��Ƃ�̍L��,�C�ݕ���,2022/7/12,19:00,30,9
��Ƃ�̍L��,�C�ݕ���,2022/7/12,20:00,29,18
��Ƃ�̍L��,�C�ݕ���,2022/7/12,21:00,16,10
��Ƃ�̍L��,�C�ݕ���,2022/7/12,22:00,14,14
��Ƃ�̍L��,�C�ݕ���,2022/7/12,23:00,3,3
��Ƃ�̍L��,�C�ݕ���,2022/7/13,0:00,3,0
��Ƃ�̍L��,�C�ݕ���,2022/7/13,1:00,0,0
��Ƃ�̍L��,�C�ݕ���,2022/7/13,2:00,0,0
��Ƃ�̍L��,�C�ݕ���,2022/7/13,3:00,0,0
��Ƃ�̍L��,�C�ݕ���,2022/7/13,4:00,3,1
��Ƃ�̍L��,�C�ݕ���,2022/7/13,5:00,7,4
��Ƃ�̍L��,�C�ݕ���,2022/7/13,6:00,13,9
��Ƃ�̍L��,�C�ݕ���,2022/7/13,7:00,12,7
��Ƃ�̍L��,�C�ݕ���,2022/7/13,8:00,34,25
��Ƃ�̍L��,�C�ݕ���,2022/7/13,9:00,36,18
��Ƃ�̍L��,�C�ݕ���,2022/7/13,10:00,58,27
��Ƃ�̍L��,�C�ݕ���,2022/7/13,11:00,65,39
��Ƃ�̍L��,�C�ݕ���,2022/7/13,12:00,67,33
��Ƃ�̍L��,�C�ݕ���,2022/7/13,13:00,63,24
��Ƃ�̍L��,�C�ݕ���,2022/7/13,14:00,55,33
��Ƃ�̍L��,�C�ݕ���,2022/7/13,15:00,74,25
��Ƃ�̍L��,�C�ݕ���,2022/7/13,16:00,73,35
��Ƃ�̍L��,�C�ݕ���,2022/7/13,17:00,63,26
��Ƃ�̍L��,�C�ݕ���,2022/7/13,18:00,37,29
��Ƃ�̍L��,�C�ݕ���,2022/7/13,19:00,22,15
��Ƃ�̍L��,�C�ݕ���,2022/7/13,20:00,13,12
��Ƃ�̍L��,�C�ݕ���,2022/7/13,21:00,20,13
��Ƃ�̍L��,�C�ݕ���,2022/7/13,22:00,11,2
��Ƃ�̍L��,�C�ݕ���,2022/7/13,23:00,4,1
��Ƃ�̍L��,�C�ݕ���,2022/7/14,0:00,1,1
��Ƃ�̍L��,�C�ݕ���,2022/7/14,1:00,1,1
��Ƃ�̍L��,�C�ݕ���,2022/7/14,2:00,0,2
��Ƃ�̍L��,�C�ݕ���,2022/7/14,3:00,1,1
��Ƃ�̍L��,�C�ݕ���,2022/7/14,4:00,2,0
��Ƃ�̍L��,�C�ݕ���,2022/7/14,5:00,0,1
��Ƃ�̍L��,�C�ݕ���,2022/7/14,6:00,2,3
��Ƃ�̍L��,�C�ݕ���,2022/7/14,7:00,15,7
��Ƃ�̍L��,�C�ݕ���,2022/7/14,8:00,17,27
��Ƃ�̍L��,�C�ݕ���,2022/7/14,9:00,44,36
��Ƃ�̍L��,�C�ݕ���,2022/7/14,10:00,62,23
��Ƃ�̍L��,�C�ݕ���,2022/7/14,11:00,55,39
��Ƃ�̍L��,�C�ݕ���,2022/7/14,12:00,32,30
��Ƃ�̍L��,�C�ݕ���,2022/7/14,13:00,46,36
��Ƃ�̍L��,�C�ݕ���,2022/7/14,14:00,43,29
��Ƃ�̍L��,�C�ݕ���,2022/7/14,15:00,48,32
��Ƃ�̍L��,�C�ݕ���,2022/7/14,16:00,59,35
��Ƃ�̍L��,�C�ݕ���,2022/7/14,17:00,65,17
��Ƃ�̍L��,�C�ݕ���,2022/7/14,18:00,41,27
��Ƃ�̍L��,�C�ݕ���,2022/7/14,19:00,12,10
��Ƃ�̍L��,�C�ݕ���,2022/7/14,20:00,16,14
��Ƃ�̍L��,�C�ݕ���,2022/7/14,21:00,23,14
��Ƃ�̍L��,�C�ݕ���,2022/7/14,22:00,9,7
��Ƃ�̍L��,�C�ݕ���,2022/7/14,23:00,3,3
��Ƃ�̍L��,�C�ݕ���,2022/7/15,0:00,2,3
��Ƃ�̍L��,�C�ݕ���,2022/7/15,1:00,2,1
��Ƃ�̍L��,�C�ݕ���,2022/7/15,2:00,1,1
��Ƃ�̍L��,�C�ݕ���,2022/7/15,3:00,1,0
��Ƃ�̍L��,�C�ݕ���,2022/7/15,4:00,0,0
��Ƃ�̍L��,�C�ݕ���,2022/7/15,5:00,2,3
��Ƃ�̍L��,�C�ݕ���,2022/7/15,6:00,9,5
��Ƃ�̍L��,�C�ݕ���,2022/7/15,7:00,14,8
��Ƃ�̍L��,�C�ݕ���,2022/7/15,8:00,25,19
��Ƃ�̍L��,�C�ݕ���,2022/7/15,9:00,50,24
��Ƃ�̍L��,�C�ݕ���,2022/7/15,10:00,56,40
��Ƃ�̍L��,�C�ݕ���,2022/7/15,11:00,83,42
��Ƃ�̍L��,�C�ݕ���,2022/7/15,12:00,75,40
��Ƃ�̍L��,�C�ݕ���,2022/7/15,13:00,93,44
��Ƃ�̍L��,�C�ݕ���,2022/7/15,14:00,56,28
��Ƃ�̍L��,�C�ݕ���,2022/7/15,15:00,74,32
��Ƃ�̍L��,�C�ݕ���,2022/7/15,16:00,81,32
��Ƃ�̍L��,�C�ݕ���,2022/7/15,17:00,74,47
��Ƃ�̍L��,�C�ݕ���,2022/7/15,18:00,64,35
��Ƃ�̍L��,�C�ݕ���,2022/7/15,19:00,22,10
��Ƃ�̍L��,�C�ݕ���,2022/7/15,20:00,20,11
��Ƃ�̍L��,�C�ݕ���,2022/7/15,21:00,29,15
��Ƃ�̍L��,�C�ݕ���,2022/7/15,22:00,22,9
��Ƃ�̍L��,�C�ݕ���,2022/7/15,23:00,19,7
��Ƃ�̍L��,�C�ݕ���,2022/7/16,0:00,8,2
��Ƃ�̍L��,�C�ݕ���,2022/7/16,1:00,0,1
��Ƃ�̍L��,�C�ݕ���,2022/7/16,2:00,1,0
��Ƃ�̍L��,�C�ݕ���,2022/7/16,3:00,0,1
��Ƃ�̍L��,�C�ݕ���,2022/7/16,4:00,2,0
��Ƃ�̍L��,�C�ݕ���,2022/7/16,5:00,1,2
��Ƃ�̍L��,�C�ݕ���,2022/7/16,6:00,7,5
��Ƃ�̍L��,�C�ݕ���,2022/7/16,7:00,7,9
��Ƃ�̍L��,�C�ݕ���,2022/7/16,8:00,33,17
��Ƃ�̍L��,�C�ݕ���,2022/7/16,9:00,33,23
��Ƃ�̍L��,�C�ݕ���,2022/7/16,10:00,86,49
��Ƃ�̍L��,�C�ݕ���,2022/7/16,11:00,90,53
��Ƃ�̍L��,�C�ݕ���,2022/7/16,12:00,118,84
��Ƃ�̍L��,�C�ݕ���,2022/7/16,13:00,95,76
��Ƃ�̍L��,�C�ݕ���,2022/7/16,14:00,115,65
��Ƃ�̍L��,�C�ݕ���,2022/7/16,15:00,103,59
��Ƃ�̍L��,�C�ݕ���,2022/7/16,16:00,90,51
��Ƃ�̍L��,�C�ݕ���,2022/7/16,17:00,144,111
��Ƃ�̍L��,�C�ݕ���,2022/7/16,18:00,57,46
��Ƃ�̍L��,�C�ݕ���,2022/7/16,19:00,30,23
��Ƃ�̍L��,�C�ݕ���,2022/7/16,20:00,22,9
��Ƃ�̍L��,�C�ݕ���,2022/7/16,21:00,24,15
��Ƃ�̍L��,�C�ݕ���,2022/7/16,22:00,13,12
��Ƃ�̍L��,�C�ݕ���,2022/7/16,23:00,3,7
��Ƃ�̍L��,�C�ݕ���,2022/7/17,0:00,3,2
��Ƃ�̍L��,�C�ݕ���,2022/7/17,1:00,1,3
��Ƃ�̍L��,�C�ݕ���,2022/7/17,2:00,0,0
��Ƃ�̍L��,�C�ݕ���,2022/7/17,3:00,0,1
��Ƃ�̍L��,�C�ݕ���,2022/7/17,4:00,1,2
��Ƃ�̍L��,�C�ݕ���,2022/7/17,5:00,5,6
��Ƃ�̍L��,�C�ݕ���,2022/7/17,6:00,7,6
��Ƃ�̍L��,�C�ݕ���,2022/7/17,7:00,13,5
��Ƃ�̍L��,�C�ݕ���,2022/7/17,8:00,28,14
��Ƃ�̍L��,�C�ݕ���,2022/7/17,9:00,39,34
��Ƃ�̍L��,�C�ݕ���,2022/7/17,10:00,75,48
��Ƃ�̍L��,�C�ݕ���,2022/7/17,11:00,138,93
��Ƃ�̍L��,�C�ݕ���,2022/7/17,12:00,174,121
��Ƃ�̍L��,�C�ݕ���,2022/7/17,13:00,233,114
��Ƃ�̍L��,�C�ݕ���,2022/7/17,14:00,169,93
��Ƃ�̍L��,�C�ݕ���,2022/7/17,15:00,166,107
��Ƃ�̍L��,�C�ݕ���,2022/7/17,16:00,132,104
��Ƃ�̍L��,�C�ݕ���,2022/7/17,17:00,122,157
��Ƃ�̍L��,�C�ݕ���,2022/7/17,18:00,48,42
��Ƃ�̍L��,�C�ݕ���,2022/7/17,19:00,25,24
��Ƃ�̍L��,�C�ݕ���,2022/7/17,20:00,25,13
��Ƃ�̍L��,�C�ݕ���,2022/7/17,21:00,18,8
��Ƃ�̍L��,�C�ݕ���,2022/7/17,22:00,16,5
��Ƃ�̍L��,�C�ݕ���,2022/7/17,23:00,7,8
��Ƃ�̍L��,�C�ݕ���,2022/7/18,0:00,6,0
��Ƃ�̍L��,�C�ݕ���,2022/7/18,1:00,3,2
��Ƃ�̍L��,�C�ݕ���,2022/7/18,2:00,1,1
��Ƃ�̍L��,�C�ݕ���,2022/7/18,3:00,0,0
��Ƃ�̍L��,�C�ݕ���,2022/7/18,4:00,3,2
��Ƃ�̍L��,�C�ݕ���,2022/7/18,5:00,3,3
��Ƃ�̍L��,�C�ݕ���,2022/7/18,6:00,8,7
��Ƃ�̍L��,�C�ݕ���,2022/7/18,7:00,9,3
��Ƃ�̍L��,�C�ݕ���,2022/7/18,8:00,14,12
��Ƃ�̍L��,�C�ݕ���,2022/7/18,9:00,33,24
��Ƃ�̍L��,�C�ݕ���,2022/7/18,10:00,59,34
��Ƃ�̍L��,�C�ݕ���,2022/7/18,11:00,105,58
��Ƃ�̍L��,�C�ݕ���,2022/7/18,12:00,112,79
��Ƃ�̍L��,�C�ݕ���,2022/7/18,13:00,111,78
��Ƃ�̍L��,�C�ݕ���,2022/7/18,14:00,94,67
��Ƃ�̍L��,�C�ݕ���,2022/7/18,15:00,99,53
��Ƃ�̍L��,�C�ݕ���,2022/7/18,16:00,52,46
��Ƃ�̍L��,�C�ݕ���,2022/7/18,17:00,47,25
��Ƃ�̍L��,�C�ݕ���,2022/7/18,18:00,24,23
��Ƃ�̍L��,�C�ݕ���,2022/7/18,19:00,15,12
��Ƃ�̍L��,�C�ݕ���,2022/7/18,20:00,12,5
��Ƃ�̍L��,�C�ݕ���,2022/7/18,21:00,6,5
��Ƃ�̍L��,�C�ݕ���,2022/7/18,22:00,4,1
��Ƃ�̍L��,�C�ݕ���,2022/7/18,23:00,3,3
��Ƃ�̍L��,�C�ݕ���,2022/7/19,0:00,1,1
��Ƃ�̍L��,�C�ݕ���,2022/7/19,1:00,1,1
��Ƃ�̍L��,�C�ݕ���,2022/7/19,2:00,1,1
��Ƃ�̍L��,�C�ݕ���,2022/7/19,3:00,1,0
��Ƃ�̍L��,�C�ݕ���,2022/7/19,4:00,2,0
��Ƃ�̍L��,�C�ݕ���,2022/7/19,5:00,0,0
��Ƃ�̍L��,�C�ݕ���,2022/7/19,6:00,0,1
��Ƃ�̍L��,�C�ݕ���,2022/7/19,7:00,18,10
��Ƃ�̍L��,�C�ݕ���,2022/7/19,8:00,21,23
��Ƃ�̍L��,�C�ݕ���,2022/7/19,9:00,47,27
��Ƃ�̍L��,�C�ݕ���,2022/7/19,10:00,52,32
��Ƃ�̍L��,�C�ݕ���,2022/7/19,11:00,57,31
��Ƃ�̍L��,�C�ݕ���,2022/7/19,12:00,44,27
��Ƃ�̍L��,�C�ݕ���,2022/7/19,13:00,52,24
��Ƃ�̍L��,�C�ݕ���,2022/7/19,14:00,63,23
��Ƃ�̍L��,�C�ݕ���,2022/7/19,15:00,57,25
��Ƃ�̍L��,�C�ݕ���,2022/7/19,16:00,46,22
��Ƃ�̍L��,�C�ݕ���,2022/7/19,17:00,56,23
��Ƃ�̍L��,�C�ݕ���,2022/7/19,18:00,36,23
��Ƃ�̍L��,�C�ݕ���,2022/7/19,19:00,31,10
��Ƃ�̍L��,�C�ݕ���,2022/7/19,20:00,15,14
��Ƃ�̍L��,�C�ݕ���,2022/7/19,21:00,12,8
��Ƃ�̍L��,�C�ݕ���,2022/7/19,22:00,4,1
��Ƃ�̍L��,�C�ݕ���,2022/7/19,23:00,2,4
��Ƃ�̍L��,�C�ݕ���,2022/7/20,0:00,4,0
��Ƃ�̍L��,�C�ݕ���,2022/7/20,1:00,0,1
��Ƃ�̍L��,�C�ݕ���,2022/7/20,2:00,0,2
��Ƃ�̍L��,�C�ݕ���,2022/7/20,3:00,0,0
��Ƃ�̍L��,�C�ݕ���,2022/7/20,4:00,2,0
��Ƃ�̍L��,�C�ݕ���,2022/7/20,5:00,3,2
��Ƃ�̍L��,�C�ݕ���,2022/7/20,6:00,7,9
��Ƃ�̍L��,�C�ݕ���,2022/7/20,7:00,18,10
��Ƃ�̍L��,�C�ݕ���,2022/7/20,8:00,26,21
��Ƃ�̍L��,�C�ݕ���,2022/7/20,9:00,28,19
��Ƃ�̍L��,�C�ݕ���,2022/7/20,10:00,38,27
��Ƃ�̍L��,�C�ݕ���,2022/7/20,11:00,97,37
��Ƃ�̍L��,�C�ݕ���,2022/7/20,12:00,79,38
��Ƃ�̍L��,�C�ݕ���,2022/7/20,13:00,86,37
��Ƃ�̍L��,�C�ݕ���,2022/7/20,14:00,66,32
��Ƃ�̍L��,�C�ݕ���,2022/7/20,15:00,45,24
��Ƃ�̍L��,�C�ݕ���,2022/7/20,16:00,91,47
��Ƃ�̍L��,�C�ݕ���,2022/7/20,17:00,61,39
��Ƃ�̍L��,�C�ݕ���,2022/7/20,18:00,46,32
��Ƃ�̍L��,�C�ݕ���,2022/7/20,19:00,27,8
��Ƃ�̍L��,�C�ݕ���,2022/7/20,20:00,16,10
��Ƃ�̍L��,�C�ݕ���,2022/7/20,21:00,12,10
��Ƃ�̍L��,�C�ݕ���,2022/7/20,22:00,11,1
��Ƃ�̍L��,�C�ݕ���,2022/7/20,23:00,3,1
��Ƃ�̍L��,�C�ݕ���,2022/7/21,0:00,2,1
��Ƃ�̍L��,�C�ݕ���,2022/7/21,1:00,2,0
��Ƃ�̍L��,�C�ݕ���,2022/7/21,2:00,1,0
��Ƃ�̍L��,�C�ݕ���,2022/7/21,3:00,0,0
��Ƃ�̍L��,�C�ݕ���,2022/7/21,4:00,3,3
��Ƃ�̍L��,�C�ݕ���,2022/7/21,5:00,2,4
��Ƃ�̍L��,�C�ݕ���,2022/7/21,6:00,5,5
��Ƃ�̍L��,�C�ݕ���,2022/7/21,7:00,12,8
��Ƃ�̍L��,�C�ݕ���,2022/7/21,8:00,19,18
��Ƃ�̍L��,�C�ݕ���,2022/7/21,9:00,44,26
��Ƃ�̍L��,�C�ݕ���,2022/7/21,10:00,57,27
��Ƃ�̍L��,�C�ݕ���,2022/7/21,11:00,65,42
��Ƃ�̍L��,�C�ݕ���,2022/7/21,12:00,68,36
��Ƃ�̍L��,�C�ݕ���,2022/7/21,13:00,59,32
��Ƃ�̍L��,�C�ݕ���,2022/7/21,14:00,57,27
��Ƃ�̍L��,�C�ݕ���,2022/7/21,15:00,45,24
��Ƃ�̍L��,�C�ݕ���,2022/7/21,16:00,50,29
��Ƃ�̍L��,�C�ݕ���,2022/7/21,17:00,31,25
��Ƃ�̍L��,�C�ݕ���,2022/7/21,18:00,29,11
��Ƃ�̍L��,�C�ݕ���,2022/7/21,19:00,20,18
��Ƃ�̍L��,�C�ݕ���,2022/7/21,20:00,17,16
��Ƃ�̍L��,�C�ݕ���,2022/7/21,21:00,19,13
��Ƃ�̍L��,�C�ݕ���,2022/7/21,22:00,7,5
��Ƃ�̍L��,�C�ݕ���,2022/7/21,23:00,0,1
��Ƃ�̍L��,�C�ݕ���,2022/7/22,0:00,5,0
��Ƃ�̍L��,�C�ݕ���,2022/7/22,1:00,0,0
��Ƃ�̍L��,�C�ݕ���,2022/7/22,2:00,0,1
��Ƃ�̍L��,�C�ݕ���,2022/7/22,3:00,1,0
��Ƃ�̍L��,�C�ݕ���,2022/7/22,4:00,2,0
��Ƃ�̍L��,�C�ݕ���,2022/7/22,5:00,3,2
��Ƃ�̍L��,�C�ݕ���,2022/7/22,6:00,8,3
��Ƃ�̍L��,�C�ݕ���,2022/7/22,7:00,16,4
��Ƃ�̍L��,�C�ݕ���,2022/7/22,8:00,24,21
��Ƃ�̍L��,�C�ݕ���,2022/7/22,9:00,54,21
��Ƃ�̍L��,�C�ݕ���,2022/7/22,10:00,56,21
��Ƃ�̍L��,�C�ݕ���,2022/7/22,11:00,82,64
��Ƃ�̍L��,�C�ݕ���,2022/7/22,12:00,94,46
��Ƃ�̍L��,�C�ݕ���,2022/7/22,13:00,68,43
��Ƃ�̍L��,�C�ݕ���,2022/7/22,14:00,77,33
��Ƃ�̍L��,�C�ݕ���,2022/7/22,15:00,69,40
��Ƃ�̍L��,�C�ݕ���,2022/7/22,16:00,40,41
��Ƃ�̍L��,�C�ݕ���,2022/7/22,17:00,68,39
��Ƃ�̍L��,�C�ݕ���,2022/7/22,18:00,59,34
��Ƃ�̍L��,�C�ݕ���,2022/7/22,19:00,35,21
��Ƃ�̍L��,�C�ݕ���,2022/7/22,20:00,39,15
��Ƃ�̍L��,�C�ݕ���,2022/7/22,21:00,22,5
��Ƃ�̍L��,�C�ݕ���,2022/7/22,22:00,20,5
��Ƃ�̍L��,�C�ݕ���,2022/7/22,23:00,11,4
��Ƃ�̍L��,�C�ݕ���,2022/7/23,0:00,1,4
��Ƃ�̍L��,�C�ݕ���,2022/7/23,1:00,2,1
��Ƃ�̍L��,�C�ݕ���,2022/7/23,2:00,1,1
��Ƃ�̍L��,�C�ݕ���,2022/7/23,3:00,0,1
��Ƃ�̍L��,�C�ݕ���,2022/7/23,4:00,1,0
��Ƃ�̍L��,�C�ݕ���,2022/7/23,5:00,3,7
��Ƃ�̍L��,�C�ݕ���,2022/7/23,6:00,6,7
��Ƃ�̍L��,�C�ݕ���,2022/7/23,7:00,8,5
��Ƃ�̍L��,�C�ݕ���,2022/7/23,8:00,22,17
��Ƃ�̍L��,�C�ݕ���,2022/7/23,9:00,24,14
��Ƃ�̍L��,�C�ݕ���,2022/7/23,10:00,71,35
��Ƃ�̍L��,�C�ݕ���,2022/7/23,11:00,81,48
��Ƃ�̍L��,�C�ݕ���,2022/7/23,12:00,103,69
��Ƃ�̍L��,�C�ݕ���,2022/7/23,13:00,121,56
��Ƃ�̍L��,�C�ݕ���,2022/7/23,14:00,119,49
��Ƃ�̍L��,�C�ݕ���,2022/7/23,15:00,23,18
��Ƃ�̍L��,�C�ݕ���,2022/7/23,16:00,0,0
��Ƃ�̍L��,�C�ݕ���,2022/7/23,17:00,0,0
��Ƃ�̍L��,�C�ݕ���,2022/7/23,18:00,0,0
��Ƃ�̍L��,�C�ݕ���,2022/7/23,19:00,0,0
��Ƃ�̍L��,�C�ݕ���,2022/7/23,20:00,0,0
��Ƃ�̍L��,�C�ݕ���,2022/7/23,21:00,0,0
��Ƃ�̍L��,�C�ݕ���,2022/7/23,22:00,0,0
��Ƃ�̍L��,�C�ݕ���,2022/7/23,23:00,0,0
��Ƃ�̍L��,�C�ݕ���,2022/7/24,0:00,0,0
��Ƃ�̍L��,�C�ݕ���,2022/7/24,1:00,0,0
��Ƃ�̍L��,�C�ݕ���,2022/7/24,2:00,0,0
��Ƃ�̍L��,�C�ݕ���,2022/7/24,3:00,0,0
��Ƃ�̍L��,�C�ݕ���,2022/7/24,4:00,0,0
��Ƃ�̍L��,�C�ݕ���,2022/7/24,5:00,0,0
��Ƃ�̍L��,�C�ݕ���,2022/7/24,6:00,0,0
��Ƃ�̍L��,�C�ݕ���,2022/7/24,7:00,0,0
��Ƃ�̍L��,�C�ݕ���,2022/7/24,8:00,0,0
��Ƃ�̍L��,�C�ݕ���,2022/7/24,9:00,0,0
��Ƃ�̍L��,�C�ݕ���,2022/7/24,10:00,0,0
��Ƃ�̍L��,�C�ݕ���,2022/7/24,11:00,0,0
��Ƃ�̍L��,�C�ݕ���,2022/7/24,12:00,0,0
��Ƃ�̍L��,�C�ݕ���,2022/7/24,13:00,0,0
��Ƃ�̍L��,�C�ݕ���,2022/7/24,14:00,0,0
��Ƃ�̍L��,�C�ݕ���,2022/7/24,15:00,0,0
��Ƃ�̍L��,�C�ݕ���,2022/7/24,16:00,0,0
��Ƃ�̍L��,�C�ݕ���,2022/7/24,17:00,0,0
��Ƃ�̍L��,�C�ݕ���,2022/7/24,18:00,0,0
��Ƃ�̍L��,�C�ݕ���,2022/7/24,19:00,0,0
��Ƃ�̍L��,�C�ݕ���,2022/7/24,20:00,0,0
��Ƃ�̍L��,�C�ݕ���,2022/7/24,21:00,0,0
��Ƃ�̍L��,�C�ݕ���,2022/7/24,22:00,0,0
��Ƃ�̍L��,�C�ݕ���,2022/7/24,23:00,0,0
��Ƃ�̍L��,�C�ݕ���,2022/7/25,0:00,0,0
��Ƃ�̍L��,�C�ݕ���,2022/7/25,1:00,0,0
��Ƃ�̍L��,�C�ݕ���,2022/7/25,2:00,0,0
��Ƃ�̍L��,�C�ݕ���,2022/7/25,3:00,0,0
��Ƃ�̍L��,�C�ݕ���,2022/7/25,4:00,0,0
��Ƃ�̍L��,�C�ݕ���,2022/7/25,5:00,0,0
��Ƃ�̍L��,�C�ݕ���,2022/7/25,6:00,0,0
��Ƃ�̍L��,�C�ݕ���,2022/7/25,7:00,0,0
��Ƃ�̍L��,�C�ݕ���,2022/7/25,8:00,0,0
��Ƃ�̍L��,�C�ݕ���,2022/7/25,9:00,42,22
��Ƃ�̍L��,�C�ݕ���,2022/7/25,10:00,52,30
��Ƃ�̍L��,�C�ݕ���,2022/7/25,11:00,74,58
��Ƃ�̍L��,�C�ݕ���,2022/7/25,12:00,67,44
��Ƃ�̍L��,�C�ݕ���,2022/7/25,13:00,61,31
��Ƃ�̍L��,�C�ݕ���,2022/7/25,14:00,67,34
��Ƃ�̍L��,�C�ݕ���,2022/7/25,15:00,77,37
��Ƃ�̍L��,�C�ݕ���,2022/7/25,16:00,52,36
��Ƃ�̍L��,�C�ݕ���,2022/7/25,17:00,79,86
��Ƃ�̍L��,�C�ݕ���,2022/7/25,18:00,33,30
��Ƃ�̍L��,�C�ݕ���,2022/7/25,19:00,24,16
��Ƃ�̍L��,�C�ݕ���,2022/7/25,20:00,17,9
��Ƃ�̍L��,�C�ݕ���,2022/7/25,21:00,15,9
��Ƃ�̍L��,�C�ݕ���,2022/7/25,22:00,10,1
��Ƃ�̍L��,�C�ݕ���,2022/7/25,23:00,3,4
��Ƃ�̍L��,�C�ݕ���,2022/7/26,0:00,2,1
��Ƃ�̍L��,�C�ݕ���,2022/7/26,1:00,0,0
��Ƃ�̍L��,�C�ݕ���,2022/7/26,2:00,0,0
��Ƃ�̍L��,�C�ݕ���,2022/7/26,3:00,0,0
��Ƃ�̍L��,�C�ݕ���,2022/7/26,4:00,1,1
��Ƃ�̍L��,�C�ݕ���,2022/7/26,5:00,5,2
��Ƃ�̍L��,�C�ݕ���,2022/7/26,6:00,4,6
��Ƃ�̍L��,�C�ݕ���,2022/7/26,7:00,9,7
��Ƃ�̍L��,�C�ݕ���,2022/7/26,8:00,29,13
��Ƃ�̍L��,�C�ݕ���,2022/7/26,9:00,36,24
��Ƃ�̍L��,�C�ݕ���,2022/7/26,10:00,51,38
��Ƃ�̍L��,�C�ݕ���,2022/7/26,11:00,68,42
��Ƃ�̍L��,�C�ݕ���,2022/7/26,12:00,84,32
��Ƃ�̍L��,�C�ݕ���,2022/7/26,13:00,67,27
��Ƃ�̍L��,�C�ݕ���,2022/7/26,14:00,64,33
��Ƃ�̍L��,�C�ݕ���,2022/7/26,15:00,40,31
��Ƃ�̍L��,�C�ݕ���,2022/7/26,16:00,54,36
��Ƃ�̍L��,�C�ݕ���,2022/7/26,17:00,76,64
��Ƃ�̍L��,�C�ݕ���,2022/7/26,18:00,30,23
��Ƃ�̍L��,�C�ݕ���,2022/7/26,19:00,21,15
��Ƃ�̍L��,�C�ݕ���,2022/7/26,20:00,11,7
��Ƃ�̍L��,�C�ݕ���,2022/7/26,21:00,11,3
��Ƃ�̍L��,�C�ݕ���,2022/7/26,22:00,8,6